Time,TemperatureF,DewpointF,PressureIn,WindDirection,WindDirectionDegrees,WindSpeedMPH,WindSpeedGustMPH,Humidity,HourlyPrecipIn,Conditions,Clouds,dailyrainin,SoftwareType,DateUTC
2013-01-20 00:00:00,32.0,11.4,24.29,North,0,0.0,-999.0,42,0.00,,,0.00,,2013-01-20 08:00:00,
2013-01-20 01:00:00,31.9,11.8,24.29,North,0,0.0,-999.0,43,0.00,,,0.00,,2013-01-20 09:00:00,
2013-01-20 02:00:00,31.7,11.2,24.29,North,0,0.0,-999.0,42,0.00,,,0.00,,2013-01-20 10:00:00,
2013-01-20 03:00:00,31.5,11.0,24.29,North,0,0.0,-999.0,42,0.00,,,0.00,,2013-01-20 11:00:00,
2013-01-20 04:00:00,31.3,11.8,24.27,North,0,0.0,-999.0,44,0.00,,,0.00,,2013-01-20 12:00:00,
2013-01-20 05:00:00,31.1,12.7,24.26,North,0,0.0,-999.0,46,0.00,,,0.00,,2013-01-20 13:00:00,
2013-01-20 06:00:00,31.0,12.0,24.26,North,0,0.0,-999.0,45,0.00,,,0.00,,2013-01-20 14:00:00,
2013-01-20 07:07:00,31.0,12.0,24.26,North,0,0.0,-999.0,45,0.00,,,0.00,,2013-01-20 15:07:00,
2013-01-20 08:00:00,32.4,11.8,24.26,North,0,0.0,-999.0,42,0.00,,,0.00,,2013-01-20 16:00:00,
2013-01-20 09:06:00,37.1,9.2,24.26,North,0,0.0,-999.0,31,0.00,,,0.00,,2013-01-20 17:06:00,
2013-01-20 10:00:00,41.9,13.4,24.29,North,0,0.0,-999.0,31,0.00,,,0.00,,2013-01-20 18:00:00,
2013-01-20 11:07:00,47.3,10.2,24.29,North,0,0.0,-999.0,22,0.00,,,0.00,,2013-01-20 19:07:00,
2013-01-20 12:00:00,50.6,11.1,24.25,North,0,0.0,-999.0,20,0.00,,,0.00,,2013-01-20 20:00:00,
2013-01-20 13:07:00,52.4,15.3,24.25,North,0,0.0,-999.0,23,0.00,,,0.00,,2013-01-20 21:07:00,
2013-01-20 14:00:00,49.5,13.9,24.22,North,0,0.0,-999.0,24,0.00,,,0.00,,2013-01-20 22:00:00,
2013-01-20 15:06:00,48.8,11.3,24.22,North,0,0.0,-999.0,22,0.00,,,0.00,,2013-01-20 23:06:00,
2013-01-20 16:00:00,46.8,16.1,24.22,North,0,0.0,-999.0,29,0.00,,,0.00,,2013-01-21 00:00:00,
2013-01-20 17:06:00,40.3,14.7,24.22,North,0,0.0,-999.0,35,0.00,,,0.00,,2013-01-21 01:06:00,
2013-01-20 18:00:00,38.2,13.3,24.23,North,0,0.0,-999.0,36,0.00,,,0.00,,2013-01-21 02:00:00,
2013-01-20 19:00:00,37.3,12.5,24.24,North,0,0.0,-999.0,36,0.00,,,0.00,,2013-01-21 03:00:00,
2013-01-20 20:00:00,36.2,13.5,24.25,North,0,0.0,-999.0,39,0.00,,,0.00,,2013-01-21 04:00:00,
2013-01-20 21:00:00,35.6,13.1,24.25,North,0,0.0,-999.0,39,0.00,,,0.00,,2013-01-21 05:00:00,
2013-01-20 22:00:00,35.6,13.1,24.26,North,0,0.0,-999.0,39,0.00,,,0.00,,2013-01-21 06:00:00,
2013-01-20 23:00:00,35.1,12.5,24.26,North,0,0.0,-999.0,39,0.00,,,0.00,,2013-01-21 07:00:00,